SCOUT X-4 R/B, 1739

Orbit data source: Space-Track

SCOUT X-4 R/B, 1739 is space debris in LEO originally from a launch on Fri, 19 Nov 1965 UTC launched from the Wallops Island (WLPIS). Debris objects in space refer to the collection of defunct objects orbiting the Earth. Examples of debris include non-operational satellites, rocket bodies, and fragments generated from explosions, collisions, or faulty payload assembly.

Loading next visibility...
Identifier
1739, 1965-093B
Orbit
LEO
Country
Flag of USUS
Related business
Manufacturer
ABL
Mission
Spacecraft
Bus & Motor
ALTAIR, Unknown motor
Mass
33 kg wet, 33 kg dry
Launch date (UTC)
1965-11-19 (60 years ago)
Launch vehicle
Unknown
Launch site
Wallops Island (WLPIS)
Object type
Payload
Rocket body
Debris
Shape & HBR
Cyl, 0.8 m
Radar Cross Section
0.687 m², Medium (>0.1 m² and < 1m²)

Expand to show TLE details & history
Last TLE update: 13 hours ago

TLE from 13 hours ago
0 SCOUT X-4 R/B
1 01739U 65093B   25242.91116436  .00001203  00000-0  30535-3 0  9994
2 01739  59.7036 143.9861 0078630 355.2263   4.8022 14.54717101128080
Epoch: 2025-08-30T21:52Z
TLE epoch observation values (Epoch: 2025-08-30T21:52:04.6Z)
Latitude
-0.00004°
Longitude
-163.37176°
Altitude
656.265 km
Speed
7.56 km/s
True Right ascension
09h 35m 56s
True Declination
0° 00' 00"
Sunlit
Object was in daylight at epoch
Visualization orbit readout
Latitude
Unknown
Longitude
Unknown
Altitude
Unknown
Speed
Unknown
Apparent Right ascension
Unknown
Apparent Declination
Unknown
Sunlit
N/A
Visualization observer readout
Local Sidereal Time
02:07:37
Azimuth
Unknown
Elevation
Unknown
Doppler factor
Unknown
Orbital elements
Apogee altitude
765.284 km
Perigee altitude
653.823 km
Semi-major axis
7,087.69 km
Eccentricity
0.00786
Inclination
59.7036°
RAAN
143.9861°
Arg. of periapsis
355.2263°
True anomaly
4.87838°
Mean anomaly
4.8022°
Eccentric anomaly
4.84021°
Mean motion
3.63736 °/min
Orbital period
98.97 mins
BSTAR
0.00030535
Loading maneuver chart data...
Computing Atmospheric mass density...
Loading historical data...
Loading historical data...
Loading historical data...
Loading historical data...
Loading historical data...
Loading historical data...
Loading historical data...
Other satellites on launch #93 in the year 1965 (1965-11-19 UTC)

Documentation

Showing up to 5 results
|